Regional Weather Roundup
Issued by NWS New Orleans/Baton Rouge, LA

Home | Current Version | Previous Version | Text Only | Print | Product List | Glossary Off
Versions: 1 2 3 4 5 6 7 8 9 10 11 12 13 14 15 16 17 18 19 20 21 22 23 24 25 26 27 28 29 30 31 32 33 34 35 36 37 38 39 40 41 42 43 44 45 46 47 48 49 50

141
ASUS44 KLIX 040810
RWRLIX
NEW ORLEANS REGIONAL WEATHER ROUNDUP
NATIONAL WEATHER SERVICE NEW ORLEANS LA
200 AM CST WED MAR 04 2015

NOTE: "FAIR" INDICATES FEW OR NO CLOUDS BELOW 12,000 FEET WITH NO
      SIGNIFICANT WEATHER AND/OR OBSTRUCTIONS TO VISIBILITY.
      SKY/WX - SKY CONDITION AND SIGNIFICANT WEATHER.
      TMP - AIR TEMPERATURE.     DP    - DEWPOINT TEMPERATURE.
      RH  - RELATIVE HUMIDITY.   PRES  - PRESSURE.
      HI  - HEAT INDEX.          WCI   - WIND CHILL INDEX.

*  THESE STATIONS ARE NOT NWS OR FAA STATIONS AND ARE NOT UNDER
   NWS QUALITY CONTROL.

LAZ038-040-048-061>063-065>067-069-040900-
SOUTHEAST LOUISIANA

CITY           SKY/WX    TMP DP  RH WIND       PRES   REMARKS
N.O. AUDUBON     N/A     67  67 100 MISG        N/A
N.O. INTL ARPT PTCLDY    67  64  90 S6        29.98F
N.O. LAKEFRONT PTCLDY    68  64  87 SE6       29.99F
SLIDELL        CLOUDY    68  67  96 S9        29.98F
BATON ROUGE    CLOUDY    69  68  96 SE5       29.96F FOG
BOOTHVILLE     FOG       63  62  97 CALM      30.00S VSB 1/4
BELLE CHASSE   CLEAR     66  63  90 E3        29.98F
BOGALUSA*      DRIZZLE   70  66  86 S7        30.00F
GALLIANO*      CLOUDY    67  65  95 CALM      29.98F
NEW ROADS*     CLOUDY    68  67  98 SE5       29.96S
GONZALES*      FOG       66  66 100 CALM      29.96S VSB 3/4
HAMMOND*       CLOUDY    66  64  94 CALM      29.99F
HOUMA*         FOG       66  65  99 CALM      29.97F VSB 1/4
PORT FOURCHON* PTSUNNY   70  68  94 CALM      30.01F

$$

MSZ070-080>082-040900-
SOUTHERN MISSISSIPPI

CITY           SKY/WX    TMP DP  RH WIND       PRES   REMARKS
MCCOMB         CLOUDY    67  66  97 S8        29.98F FOG
GULFPORT       FOG       65  64  97 SE12      30.00F VSB 3/4
BILOXI         MOCLDY    66  66 100 S9        30.00F FOG
PASCAGOULA     CLOUDY    66  65  96 S8        30.01F FOG

$$

COASTAL OBSERVATIONS
LAKE AND NEARSHORE STATIONS

STATION/POSITION TIME  TEMP    WIND        PRES    WAVE
                       AIR SEA DIR/SP/G            HT/PER
                 (UTC) (F)     (DEG/KT/KT) (MB)    (FT/S)
PASCAGOULA       0800   64     130/  6/ 10 1015.9
WAVELAND YACHT   0800   63 60  160/  8/ 10 1015.6
GRAND ISLE       0800   67 64  130/  5/  7 1015.7
SOUTHWEST PASS   0800   65 46  160/ 11/ 12 1015.8
NEW CANAL        0800   67     140/  2/  4 1015.6
SHELL BEACH      0800   66 62  130/  8/  9 1015.4

OFFSHORE STATIONS

STATION/POSITION TIME  TEMP    WIND        PRES    WAVE
                       AIR SEA DIR/SP/G            HT/PER
                 (UTC) (F)     (DEG/KT/KT) (MB)    (FT/S)
64 S DAUPHIN ISL 0737   71 71  150/ 16/ 17 1016.6    4/ 6

$$




USA.gov is the U.S. government's official web portal to all federal, state and local government web resources and services.